Flag for Canada Weather past 2 weeks in Granby, Quebec, Canada

Now
39 °F

Chilly.


Feels Like: 35 °F
Forecast: 40 / 52 °F
Wind: 6 mph from Northeast

Location: Frelighsburg

Current Time: Apr 27, 2015 at 5:08:19 AM

Latest Report: Apr 27, 2015 at 4:00 AM


Visibility: N/A

Pressure: 29.65 "Hg

Humidity: 97%

Dew point: 38 °F

Location of GranbyLocation

Historic Weather in Granby — Graph

°F

Granby temperature yesterday

Maximum temperature yesterday: 49 °F (at 3:00 PM)
Minimum temperature yesterday: 38 °F (at 7:00 AM)
Average temperature yesterday: 43 °F

Past Weeks' High & Low Weather Summary

 TemperatureHumidityPressure
High70 °F (Apr 13, 4:00 PM)100% (Apr 23, 8:00 AM)30.45 "Hg (Apr 23, 8:00 AM)
Low30 °F (Apr 25, 3:00 AM)12% (Apr 16, 4:00 PM)29.49 "Hg (Apr 21, 8:00 AM)
Average45 °F60%29.91 "Hg
* Reported Apr 12 4:00 AM — Apr 27 4:00 AM, Granby, Weather by CustomWeather, © 2015

Note: Actual official high and low records may vary slightly from our data, if they occured in-between our weather recording intervals... More about our weather records

Advertising

Granby weather history for previous 24 hours

 ConditionsComfort  
Time TempWeatherWind HumidityBarometerVisibility
4:00 AM
Mon, Apr 27
39 °FChilly.6 mph97%29.65 "HgN/A
3:00 AM40 °FQuite cool.5 mph94%29.65 "HgN/A
2:00 AM41 °FQuite cool.3 mph90%29.65 "HgN/A
1:00 AM42 °FQuite cool.3 mph89%29.65 "HgN/A
12:00 AM43 °FQuite cool.3 mph85%29.66 "HgN/A
11:00 PM
Sun, Apr 26
44 °FQuite cool.5 mph83%29.66 "HgN/A
10:00 PM44 °FQuite cool.3 mph78%29.67 "HgN/A
9:00 PM45 °FCool.5 mph73%29.68 "HgN/A
8:00 PM45 °FCool.3 mph71%29.68 "HgN/A
7:00 PM47 °FCool.6 mph59%29.68 "HgN/A
6:00 PM49 °FCool.5 mph51%29.67 "HgN/A
5:00 PM49 °FCool.8 mph56%29.67 "HgN/A
4:00 PM49 °FCool.6 mph55%29.67 "HgN/A
3:00 PM49 °FCool.6 mph55%29.67 "HgN/A
2:00 PM48 °FCool.5 mph59%29.69 "HgN/A
1:00 PM45 °FCool.7 mph62%29.70 "HgN/A
12:00 PM45 °FCool.7 mph59%29.71 "HgN/A
11:00 AM44 °FQuite cool.5 mph65%29.71 "HgN/A
10:00 AM42 °FQuite cool.3 mph71%29.71 "HgN/A
9:00 AM40 °FChilly.5 mph82%29.72 "HgN/A
8:00 AM38 °FChilly.5 mph85%29.71 "HgN/A
7:00 AM38 °FChilly.5 mph86%29.70 "HgN/A
6:00 AM38 °FChilly.2 mph90%29.70 "HgN/A
5:00 AM39 °FChilly.3 mph87%29.69 "HgN/A
Weather by CustomWeather, © 2015

See weather overviewHow to use our weather pages